Weather History for Paso Robles, CA

Change the Weather History Date:

Friday, May 10, 2013

  Actual Average Record
Temperature  
Mean Temperature 71 °F 62 °F  
Max Temperature 92 °F 79 °F 97 °F (1997)
Min Temperature 49 °F 45 °F 33 °F (1982)
Degree Days  
Heating Degree Days 0 4  
Month to date heating degree days 13 48  
Since 1 July heating degree days 2361 2760  
Cooling Degree Days 6 1  
Month to date cooling degree days 23 10  
Year to date cooling degree days 52 19  
Growing Degree Days 19 (Base 50)    
Moisture  
Dew Point 49 °F    
Average Humidity 58    
Maximum Humidity 93    
Minimum Humidity 23    
Precipitation  
Precipitation 0.00 in 0.01 in 0.04 in (1980)
Month to date precipitation 0.05 0.12  
Year to date precipitation 1.46 8.63  
Since 1 July precipitation 4.67 12.62  
Sea Level Pressure  
Sea Level Pressure 30.11 in    
Wind  
Wind Speed 6 mph (NW)    
Max Wind Speed 17 mph    
Max Gust Speed 21 mph    
Visibility 10 miles    
Events      
T = Trace of Precipitation, MM = Missing Value Source: NWS Daily Summary

Daily Weather History Graph

Daily Weather History Graph

Search for Another Location

Airport:

Trip Planner

Search our weather history database for the weather conditions in past years. The results will help you decide how hot, cold, wet, or windy it might be!

Date:

Astronomy

May. 10, 2013 Rise Set
Actual Time 6:01 AM PDT 7:56 PM PDT
Civil Twilight 5:33 AM PDT 8:25 PM PDT
Nautical Twilight 4:59 AM PDT 8:59 PM PDT
Astronomical Twilight 4:23 AM PDT 9:35 PM PDT
Moon 6:29 AM PDT (5/10) 8:50 PM PDT (5/10)
Length of Visible Light 14h 51m
Length of Day
13h 55m
New Moon, 1% of the Moon is Illuminated
May 10
New Moon
May 17
First Quarter
May 24
Full
May 31
Last Quarter
Jun 8
New

Hourly Weather History & Observations

Time (PDT) Temp. Dew Point Humidity Pressure Visibility Wind Dir Wind Speed Gust Speed Precip Events Conditions
12:53 AM 53.1 °F 46.9 °F 80% 30.14 in 10.0 mi WNW 9.2 mph - N/A   Clear
1:53 AM 52.0 °F 46.9 °F 83% 30.13 in 10.0 mi NW 9.2 mph - N/A   Clear
2:53 AM 51.1 °F 46.9 °F 86% 30.13 in 10.0 mi NW 6.9 mph - N/A   Clear
3:53 AM 50.0 °F 46.9 °F 89% 30.14 in 10.0 mi WNW 5.8 mph - N/A   Clear
6:10 AM 48.2 °F 46.4 °F 93% 30.15 in 8.0 mi Calm Calm - N/A   Mostly Cloudy
6:53 AM 50.0 °F 48.0 °F 93% 30.16 in 6.0 mi NNW 5.8 mph - N/A   Overcast
7:53 AM 51.1 °F 48.0 °F 89% 30.17 in 8.0 mi NNW 3.5 mph - N/A   Overcast
8:13 AM 53.6 °F 48.2 °F 82% 30.18 in 10.0 mi NNW 4.6 mph - N/A   Overcast
8:35 AM 53.6 °F 48.2 °F 82% 30.17 in 10.0 mi Variable 3.5 mph - N/A   Scattered Clouds
8:53 AM 55.9 °F 48.9 °F 77% 30.17 in 10.0 mi Calm Calm - N/A   Clear
10:53 AM 70.0 °F 48.9 °F 47% 30.14 in 10.0 mi NNW 4.6 mph - N/A   Clear
11:53 AM 75.9 °F 48.9 °F 38% 30.12 in 10.0 mi Variable 4.6 mph - N/A   Clear
12:53 PM 82.0 °F 48.9 °F 31% 30.10 in 10.0 mi Variable 5.8 mph - N/A   Clear
1:53 PM 84.9 °F 48.9 °F 29% 30.07 in 10.0 mi Calm Calm - N/A   Clear
2:53 PM 89.1 °F 48.9 °F 25% 30.06 in 10.0 mi Calm Calm - N/A   Clear
3:53 PM 90.0 °F 46.9 °F 23% 30.03 in 10.0 mi Variable 4.6 mph - N/A   Clear
4:53 PM 90.0 °F 48.9 °F 24% 30.01 in 10.0 mi SW 11.5 mph - N/A   Clear
5:53 PM 88.0 °F 48.9 °F 26% 30.01 in 10.0 mi WSW 9.2 mph - N/A   Clear
6:53 PM 82.9 °F 50.0 °F 32% 30.03 in 10.0 mi NNW 13.8 mph - N/A   Clear
7:53 PM 77.0 °F 50.0 °F 39% 30.05 in 10.0 mi WNW 11.5 mph - N/A   Clear
8:53 PM 72.0 °F 51.1 °F 48% 30.08 in 10.0 mi NW 12.7 mph - N/A   Clear
9:53 PM 68.0 °F 51.1 °F 55% 30.10 in 10.0 mi WNW 9.2 mph - N/A   Clear
10:53 PM 63.0 °F 51.1 °F 65% 30.11 in 10.0 mi NW 13.8 mph - N/A   Clear
11:53 PM 61.0 °F 50.0 °F 67% 30.12 in 10.0 mi NNW 5.8 mph - N/A   Clear